Theta_e
313 313 314 314 315 317 317 318 318 318 318 319 320 321 321 322 320 307 299 307 312 319 319 308 313 313 312 309 306 305 296 297 297 293 294 300 298 302 303 300 302 310 315 322 332
312 312 313 314 315 317 317 317 317 318 318 318 319 320 321 321 312 301 312 318 318 319 307 302 302 311 305 305 306 298 295 293 299 300 298 302 302 300 299 299 300 302 305 311 330
311 312 312 313 314 316 317 317 318 320 321 321 319 319 319 319 306 298 315 318 319 315 306 305 304 305 303 304 305 301 295 301 303 305 302 302 303 304 300 297 299 299 302 304 304
310 311 311 311 313 315 317 317 319 319 320 319 318 318 319 313 290 298 315 318 318 312 306 304 301 299 299 301 305 300 304 303 303 305 301 300 303 301 302 299 302 302 303 304 303
309 310 310 311 312 314 315 317 317 317 318 318 317 318 310 293 292 301 312 312 307 306 303 301 299 298 294 297 302 300 302 304 304 303 300 301 298 298 298 301 304 304 304 302 303
309 309 309 310 311 313 314 315 317 316 316 315 316 312 299 287 301 300 301 305 305 304 303 302 299 300 297 296 295 295 296 296 297 298 298 296 298 300 300 302 303 304 303 301 300
308 308 308 309 310 312 313 314 316 316 314 314 316 302 294 291 300 299 299 302 304 304 301 303 303 299 298 296 297 296 292 296 295 297 295 298 294 294 300 301 299 300 302 300 299
308 308 308 308 309 310 313 315 314 315 313 313 312 302 291 301 301 297 298 301 305 307 304 304 305 302 299 299 296 294 292 289 293 295 296 295 289 294 298 297 295 296 297 297 298
307 308 307 307 309 309 311 313 312 312 313 308 300 298 288 302 294 296 296 297 301 305 306 305 303 294 294 292 290 288 284 286 289 293 291 291 288 294 296 295 293 294 295 296 296
306 307 306 306 309 308 309 310 310 306 302 301 296 293 292 288 294 294 295 300 301 302 299 298 294 287 286 285 277 280 281 284 282 287 287 288 288 291 293 293 292 292 293 293 293
305 305 305 306 308 310 310 307 302 294 294 288 288 288 290 293 297 291 293 298 298 296 288 290 284 279 280 282 287 285 283 281 282 285 283 286 288 289 290 289 289 289 289 289 290
304 304 304 305 304 309 306 296 294 297 287 293 291 291 292 293 287 289 292 291 290 286 290 286 280 285 285 282 283 285 280 277 281 283 282 284 286 287 288 287 288 287 288 288 289
304 303 303 304 303 304 297 295 301 301 290 289 291 288 289 292 286 286 288 289 285 284 285 280 280 285 282 279 279 281 276 276 277 282 284 285 284 285 287 287 287 287 288 288 288
304 301 302 307 300 298 294 299 302 302 286 283 286 288 290 291 285 291 289 288 286 282 285 283 283 281 280 278 279 277 280 279 280 277 271 283 273 283 284 283 284 284 284 286 287
303 300 301 304 297 292 294 300 303 299 272 284 285 293 290 283 284 286 290 288 280 281 285 279 279 277 277 277 281 278 280 280 280 277 276 278 273 278 282 279 280 281 283 284 286
302 299 300 297 295 293 298 301 298 286 270 281 285 283 283 284 283 287 284 286 286 283 282 279 283 280 278 281 282 282 280 282 283 279 270 274 272 272 276 277 279 281 282 283 284
300 298 296 295 290 295 298 296 284 275 283 278 278 282 281 278 280 281 280 276 273 272 274 278 276 280 280 277 281 279 276 266 264 265 266 275 270 273 278 279 280 280 280 282 283
299 299 296 294 295 297 296 291 274 275 278 282 281 281 277 277 278 279 279 274 276 275 273 271 270 275 279 276 274 276 274 265 256 263 266 274 266 273 280 281 282 282 281 281 282
298 299 297 295 296 296 295 279 276 279 280 278 280 278 277 278 277 278 275 274 275 275 269 268 271 277 278 278 278 274 269 276 264 263 262 270 274 279 281 281 280 279 279 280 280
297 295 294 296 297 297 286 279 278 282 280 280 277 277 274 275 275 275 274 276 275 277 278 273 266 275 276 278 279 276 276 267 266 255 255 267 268 268 276 274 277 277 278 280 281
298 294 296 297 298 289 280 277 280 281 281 279 277 276 275 274 274 273 273 276 277 277 277 275 269 272 276 272 270 272 271 271 267 266 258 259 265 274 274 275 274 276 278 279 280
295 285 296 297 285 283 279 278 282 278 281 280 279 278 276 275 274 273 273 276 279 277 272 276 268 264 270 274 275 274 271 271 260 261 266 266 265 278 276 277 277 277 279 280 281
289 288 297 296 282 278 277 278 280 277 278 278 277 278 277 275 267 274 273 278 279 277 274 274 267 259 265 270 273 271 273 273 269 265 261 256 263 279 278 277 278 278 279 280 280
290 282 287 289 285 281 276 275 274 280 278 278 277 277 276 274 275 267 273 277 279 277 280 278 269 265 261 266 270 268 271 271 265 261 265 266 268 273 275 276 277 279 279 280 279
288 280 282 281 280 281 280 276 273 273 278 278 276 276 275 266 272 267 273 275 277 279 277 273 263 268 269 272 271 270 270 271 268 269 265 268 268 272 275 276 277 279 278 279 279
285 284 284 279 280 279 279 275 276 277 276 275 275 277 277 268 273 267 273 274 274 275 274 276 262 265 262 269 270 269 271 271 271 271 270 270 269 276 277 278 277 277 277 277 278
288 287 288 281 279 278 279 279 277 278 279 279 277 276 276 277 278 279 279 278 277 274 272 269 266 263 258 266 261 257 266 269 270 271 270 267 272 276 275 275 275 275 277 277 278
Wind_Speed
20 20 20 19 19 17 15 14 13 13 12 11 11 11 10 10 11 20 20 14 13 17 14 3 5 6 5 6 7 11 4 6 2 5 5 9 9 10 9 7 7 10 10 7 12
19 19 19 19 19 17 15 13 14 13 11 9 7 8 9 9 4 20 19 22 18 14 9 5 4 3 4 3 2 4 4 5 11 11 7 7 7 8 8 9 14 16 10 9 8
19 20 20 20 18 17 15 14 13 11 11 9 4 4 5 5 1 13 26 23 18 13 5 5 2 2 3 1 2 4 4 5 8 12 8 11 11 8 8 11 10 11 15 11 7
20 20 21 20 19 17 16 15 14 12 11 10 6 3 2 6 6 17 23 18 16 11 4 2 4 3 3 2 3 1 4 3 6 12 9 8 11 8 6 10 11 11 12 15 17
20 20 20 20 19 17 15 14 13 14 13 12 13 4 0 10 10 20 19 14 10 13 8 6 5 4 3 3 5 2 6 7 9 12 5 6 16 16 15 12 15 16 19 17 18
20 20 20 21 21 17 13 13 13 12 12 14 15 13 12 15 13 20 20 10 12 11 9 9 5 5 5 4 3 4 5 2 2 2 11 6 6 7 13 14 14 14 17 22 23
19 19 19 19 21 16 12 9 10 13 7 11 9 7 21 11 14 19 19 11 10 8 8 7 5 7 5 1 3 3 3 6 8 9 7 10 10 8 5 12 17 21 15 20 23
19 19 18 18 20 15 12 5 8 11 12 6 10 6 8 7 14 24 20 10 14 6 4 5 3 1 2 3 4 4 1 3 15 14 8 11 9 17 16 17 18 20 18 19 22
19 19 18 18 20 14 11 9 7 7 9 17 8 5 7 12 23 22 15 13 11 5 1 1 3 14 10 1 3 10 6 8 4 16 12 7 6 14 17 17 17 17 18 18 19
20 19 19 16 19 12 10 6 18 15 9 3 14 4 11 16 16 17 25 15 3 3 5 9 7 13 16 15 5 7 6 7 10 10 13 7 12 13 15 16 16 16 17 17 18
21 20 19 14 18 11 6 5 1 9 18 12 8 5 8 19 5 23 26 12 16 6 9 17 15 14 14 14 5 7 8 7 6 12 10 6 12 11 14 16 16 16 16 16 17
21 21 19 12 12 15 6 6 4 3 12 11 9 10 7 13 10 29 24 12 13 18 7 9 17 10 9 15 10 7 9 8 8 13 7 7 12 13 13 15 15 15 15 16 16
21 21 17 11 11 6 11 7 3 4 4 7 11 7 7 10 9 20 18 11 8 14 17 14 12 11 12 15 14 12 10 10 6 12 3 7 8 11 15 16 13 14 14 14 16
19 22 17 11 2 2 5 5 2 3 5 13 13 8 13 4 4 14 14 4 7 9 5 10 11 13 10 11 13 4 14 13 8 5 2 5 1 6 8 13 14 13 13 14 16
17 21 15 19 2 5 5 5 3 3 7 10 7 6 10 10 7 18 11 8 9 12 1 5 10 13 10 8 9 5 20 13 9 2 3 3 3 6 7 9 11 12 13 11 11
14 19 12 4 4 3 5 5 3 7 1 4 5 9 7 11 7 11 10 8 0 3 11 8 6 6 7 13 10 16 14 2 4 3 1 3 4 1 3 4 8 10 12 13 13
10 9 9 4 3 6 4 3 6 8 2 6 5 7 4 8 9 10 12 16 10 8 9 4 7 4 11 6 8 17 11 5 6 5 4 8 4 3 6 5 6 8 10 12 13
9 8 0 6 3 3 2 3 10 1 1 1 3 4 5 8 5 9 5 7 12 9 3 6 4 8 9 5 5 7 4 4 2 4 5 12 5 4 7 4 3 6 10 8 9
7 1 2 7 3 2 1 9 2 2 1 3 4 3 3 3 4 3 7 4 7 11 5 5 1 2 6 5 6 8 6 3 1 2 2 5 3 5 5 5 8 11 9 9 10
1 2 2 10 3 2 8 5 2 3 1 3 2 3 3 4 5 6 4 4 2 6 6 3 5 3 4 3 3 4 3 2 3 4 6 5 5 2 3 7 8 8 10 10 9
1 2 3 10 2 8 6 3 4 3 1 3 2 2 4 3 2 1 3 3 3 4 4 4 3 4 4 4 4 3 2 3 2 2 3 6 6 7 7 3 4 6 7 7 7
2 3 5 7 7 3 3 5 3 5 1 3 1 1 2 2 2 2 1 3 3 2 2 3 1 4 3 6 3 2 2 2 5 5 3 5 8 12 5 3 5 7 7 7 8
3 2 3 3 5 3 1 3 0 3 4 3 3 1 0 1 1 2 2 3 4 2 2 3 1 4 3 2 1 2 3 2 4 2 9 2 9 5 5 6 10 11 9 7 7
3 2 5 5 2 6 5 3 3 2 3 2 3 4 3 1 3 2 3 3 4 4 6 3 3 6 6 5 4 4 8 9 7 5 11 13 29 19 21 18 16 15 10 7 6
4 1 1 2 2 5 3 6 4 5 2 5 3 6 5 3 2 2 3 4 7 8 5 2 4 5 6 13 12 13 17 19 16 17 15 26 25 24 23 19 21 17 6 6 7
3 3 1 1 2 5 1 5 7 4 7 4 6 8 8 7 7 7 6 5 4 4 4 5 4 3 4 15 12 15 20 20 19 20 23 27 29 21 21 17 9 8 5 6 8
0 1 1 4 3 2 4 5 8 8 7 4 8 4 7 10 7 5 5 5 5 4 5 3 2 2 5 2 2 8 11 12 7 9 10 17 19 15 12 10 7 3 6 8 11
Wind_Direction
13 9 7 4 1 358 357 359 358 356 356 1 356 335 330 336 306 49 34 343 327 324 313 323 41 39 51 29 20 316 23 226 254 47 23 14 9 7 324 5 347 68 69 17 59
10 9 8 5 0 2 4 2 359 353 359 3 357 330 324 330 341 37 3 351 344 334 327 327 343 46 58 70 69 70 19 333 342 37 31 24 4 17 353 337 14 4 13 48 82
8 8 10 7 2 7 12 11 1 356 3 360 7 320 295 281 82 357 354 339 333 314 303 294 311 262 74 317 141 142 137 319 338 10 8 347 356 342 354 8 5 359 3 7 337
6 5 7 6 2 8 10 6 356 354 7 8 9 349 323 242 46 344 341 334 316 306 288 264 217 247 179 195 148 82 160 149 315 328 342 338 306 325 10 34 24 19 14 23 20
5 4 3 3 0 5 7 8 6 2 2 8 17 270 121 57 12 356 342 334 354 342 26 358 335 343 324 97 141 212 183 163 217 230 243 320 15 14 37 5 15 14 24 18 16
5 4 3 0 357 360 9 2 4 3 9 6 1 44 70 59 341 354 348 352 4 3 43 33 13 317 308 354 357 331 340 323 263 338 43 19 83 35 333 356 14 11 16 37 27
3 3 3 3 356 355 7 2 3 36 11 343 342 101 64 49 2 354 354 7 338 17 23 21 331 41 323 128 359 312 312 83 43 21 35 338 84 120 33 349 28 21 28 33 32
1 1 3 2 2 357 347 357 355 12 5 30 320 75 79 54 358 6 359 355 345 6 40 341 243 228 45 245 217 337 265 98 63 32 9 342 85 33 32 56 37 36 27 30 32
3 360 3 5 359 352 336 70 9 328 330 32 21 61 19 335 356 360 2 332 311 330 66 118 294 47 3 293 86 25 21 35 77 39 4 356 30 40 48 52 48 40 30 28 25
8 2 359 4 1 340 290 317 48 31 349 7 26 74 25 349 332 343 345 322 230 16 24 30 55 47 29 30 42 350 0 356 22 22 349 18 75 54 48 49 48 39 32 28 20
7 5 358 355 1 350 298 292 173 23 42 69 29 48 358 333 30 2 346 343 31 26 75 49 63 34 36 4 30 9 27 24 334 26 341 343 97 71 57 47 38 34 27 21 19
8 5 1 347 353 5 33 61 40 103 85 64 45 44 4 332 356 7 1 22 24 44 118 57 41 17 21 17 346 71 30 14 321 341 322 313 111 87 67 60 48 36 29 22 14
6 5 2 350 328 46 72 63 346 318 97 44 46 21 349 345 33 6 3 332 29 37 62 66 18 354 32 26 9 75 33 350 314 317 239 31 132 122 86 63 49 42 33 24 17
3 1 358 341 35 336 45 350 326 298 82 1 4 30 345 333 56 5 3 334 28 24 29 53 24 10 45 37 360 320 357 320 312 10 317 346 126 97 67 56 43 36 29 21 12
4 6 359 26 76 46 333 318 308 254 56 341 3 298 40 56 307 355 14 12 22 22 135 57 16 15 24 354 338 316 313 289 273 255 62 353 76 102 82 33 31 28 22 22 18
8 8 359 27 68 14 320 299 262 48 32 359 8 359 16 23 15 341 29 18 65 24 85 89 82 37 336 319 54 324 322 255 118 123 78 200 76 87 33 26 17 13 12 10 6
8 16 35 11 19 333 317 249 44 78 287 332 340 341 60 1 14 6 41 45 30 9 16 354 44 88 9 341 357 358 351 1 9 15 206 25 354 133 125 67 32 8 3 1 358
349 344 0 69 339 304 229 56 66 299 8 63 320 290 55 3 36 25 44 35 24 3 11 359 343 21 358 24 325 325 7 93 235 332 296 307 251 176 135 105 312 10 4 0 347
311 183 76 354 349 252 63 52 113 112 51 359 266 17 56 38 18 24 56 42 32 14 46 6 39 77 50 346 1 319 43 342 317 237 18 244 76 142 175 227 16 9 4 356 347
1 344 42 336 351 273 68 109 127 61 136 227 48 23 9 21 27 27 40 4 65 32 338 56 297 50 318 267 99 54 4 58 349 358 305 286 289 229 200 29 357 1 3 357 340
313 50 327 337 313 48 80 90 120 110 357 4 95 43 80 20 37 72 358 122 8 22 334 33 107 297 302 53 11 330 64 27 118 173 216 304 261 177 124 106 349 354 341 340 334
313 42 334 335 53 46 85 144 122 141 178 122 9 54 22 85 5 82 42 86 93 320 15 87 27 284 287 45 320 37 58 72 110 300 283 270 269 277 176 139 53 351 332 332 331
58 320 345 345 108 95 288 97 298 140 169 154 152 67 59 146 71 300 98 79 135 317 84 3 236 317 2 68 81 230 183 227 104 53 216 195 258 68 187 313 5 337 317 302 304
48 29 348 39 349 121 142 150 150 32 133 111 117 125 128 220 138 201 215 217 185 179 162 115 267 192 207 235 337 279 293 272 166 204 269 240 276 278 283 294 320 310 293 285 340
23 62 322 66 27 103 143 142 139 166 231 172 192 188 160 154 225 194 263 257 208 201 200 153 244 236 261 280 290 287 280 268 257 257 254 275 267 280 282 288 288 285 324 1 329
102 136 193 126 106 108 81 213 174 167 157 210 219 191 181 165 185 195 170 224 245 135 164 164 275 88 257 262 267 273 265 263 264 266 267 269 277 275 283 279 279 314 6 321 310
13 66 290 149 159 133 202 184 195 149 204 181 197 230 209 203 226 249 202 216 216 188 185 171 214 1 265 158 288 297 254 241 236 242 252 274 287 299 287 291 292 272 318 306 289